Location: State Line Observation Field
(36.5320°N, 77.5360°W)
Time: 17:39:51
(UTC-04:00)

Envisat - Pass Details

Date: 07 March 2021
Orbit: 764 x 766 km, 98.1° (Epoch: 16 April)

Event Time Altitude Azimuth Distance (km) Brightness Sun altitude
Rises 05:52:22 0° 11° (N) 3,238 6.4 -8.8°
Reaches altitude 10° 05:54:41 10° 11° (N) 2,307 5.6 -8.3°
Maximum altitude 05:59:46 83° 285° (WNW) 775 3.0 -7.3°
Drops below altitude 10° 06:04:49 10° 197° (SSW) 2,291 5.3 -6.3°
Sets 06:07:07 0° 196° (SSW) 3,213 6.1 -5.8°
